• In Romania
  • List of Countries
  • For 7 days
  • Water Temperature
  • Satellite Maps
  • Weather Map
  • Weather Widgets
  • user-avatar
    Login

    Hourly Weather Wien

    Today, 27 April, Thursday

    Time Temperature Precipitation Wind Pressure Humidity
    00:00 +6°C° 0.1 mm 2 mps 738 mmHg 93%
    01:00 +5°C° 0.1 mm 3 mps 738 mmHg 93%
    02:00 +5°C° 0.4 mm 3 mps 738 mmHg 93%
    03:00 +5°C° 0.4 mm 3 mps 738 mmHg 93%
    04:00 +4°C° 0.4 mm 3 mps 738 mmHg 93%
    05:00 +4°C° 0.5 mm 3 mps 738 mmHg 93%
    06:00 +4°C° 0.5 mm 3 mps 738 mmHg 93%
    07:00 +4°C° 0.5 mm 3 mps 738 mmHg 93%
    08:00 +5°C° 0.5 mm 3 mps 739 mmHg 92%
    09:00 +5°C° 0.5 mm 4 mps 739 mmHg 91%
    10:00 +6°C° 0.5 mm 4 mps 739 mmHg 90%
    11:00 +6°C° 0.3 mm 4 mps 739 mmHg 88%
    12:00 +8°C° 0.3 mm 3 mps 740 mmHg 87%
    13:00 +8°C° 0.3 mm 3 mps 740 mmHg 85%
    14:00 +9°C° 0.1 mm 3 mps 740 mmHg 84%
    15:00 +9°C° 0.1 mm 3 mps 740 mmHg 83%
    16:00 +9°C° 0.1 mm 3 mps 740 mmHg 82%
    17:00 +9°C° 0.1 mm 3 mps 740 mmHg 85%
    18:00 +8°C° 0.1 mm 3 mps 739 mmHg 88%
    19:00 +8°C° 0.1 mm 2 mps 739 mmHg 91%
    20:00 +7°C° 0.2 mm 2 mps 739 mmHg 92%
    21:00 +7°C° 0.2 mm 2 mps 739 mmHg 92%
    22:00 +5°C° 0.2 mm 3 mps 739 mmHg 93%
    23:00 +6°C° 0.3 mm 2 mps 738 mmHg 94%

    Tomorrow, 28 April, Friday

    Time Temperature Precipitation Wind Pressure Humidity
    00:00 +6°C° 0.3 mm 2 mps 737 mmHg 95%
    01:00 +6°C° 0.3 mm 2 mps 737 mmHg 96%
    02:00 +6°C° 0.4 mm 2 mps 736 mmHg 96%
    03:00 +7°C° 0.4 mm 1 mps 736 mmHg 96%
    04:00 +7°C° 0.4 mm 1 mps 735 mmHg 97%
    05:00 +7°C° 0.3 mm 1 mps 735 mmHg 96%
    06:00 +6°C° 0.3 mm 2 mps 735 mmHg 96%
    07:00 +6°C° 0.3 mm 2 mps 735 mmHg 96%
    08:00 +7°C° 0.2 mm 2 mps 735 mmHg 94%
    09:00 +7°C° 0.2 mm 2 mps 735 mmHg 92%
    10:00 +8°C° 0.2 mm 3 mps 735 mmHg 91%
    11:00 +8°C° 0.2 mm 3 mps 735 mmHg 90%
    12:00 +8°C° 0.2 mm 3 mps 735 mmHg 89%
    13:00 +9°C° 0.2 mm 3 mps 735 mmHg 87%
    14:00 +9°C° 0.1 mm 3 mps 735 mmHg 85%
    15:00 +8°C° 0.1 mm 4 mps 735 mmHg 84%
    16:00 +10°C° 0.1 mm 4 mps 736 mmHg 82%
    17:00 +8°C° 0 mm 4 mps 736 mmHg 83%
    18:00 +7°C° 0 mm 4 mps 737 mmHg 84%
    19:00 +7°C° 0 mm 4 mps 737 mmHg 86%
    20:00 +6°C° 0 mm 4 mps 738 mmHg 87%
    21:00 +6°C° 0 mm 4 mps 738 mmHg 89%
    22:00 +5°C° 0 mm 4 mps 739 mmHg 90%
    23:00 +5°C° 0 mm 4 mps 739 mmHg 90%

    Day after tomorrow, 29 April, Saturday

    Time Temperature Precipitation Wind Pressure Humidity
    00:00 +5°C° 0 mm 4 mps 739 mmHg 90%
    01:00 +5°C° 0 mm 4 mps 740 mmHg 90%
    02:00 +5°C° 0 mm 5 mps 740 mmHg 90%
    03:00 +5°C° 0 mm 5 mps 741 mmHg 90%
    04:00 +3°C° 0 mm 5 mps 741 mmHg 90%
    05:00 +5°C° 0 mm 5 mps 741 mmHg 87%
    06:00 +6°C° 0 mm 5 mps 742 mmHg 84%
    07:00 +5°C° 0 mm 6 mps 742 mmHg 81%
    08:00 +8°C° 0 mm 6 mps 742 mmHg 74%
    09:00 +9°C° 0 mm 5 mps 742 mmHg 68%
    10:00 +10°C° 0 mm 5 mps 742 mmHg 62%
    11:00 +12°C° 0.1 mm 5 mps 742 mmHg 60%
    12:00 +13°C° 0.1 mm 5 mps 742 mmHg 58%
    13:00 +13°C° 0.1 mm 5 mps 742 mmHg 55%
    14:00 +13°C° 0.1 mm 5 mps 742 mmHg 55%
    15:00 +13°C° 0.1 mm 4 mps 742 mmHg 56%
    16:00 +13°C° 0.1 mm 4 mps 742 mmHg 56%
    17:00 +12°C° 0.1 mm 3 mps 742 mmHg 64%
    18:00 +10°C° 0.1 mm 3 mps 742 mmHg 71%
    19:00 +8°C° 0.1 mm 2 mps 742 mmHg 79%
    20:00 +7°C° 0 mm 2 mps 743 mmHg 81%
    21:00 +6°C° 0 mm 2 mps 743 mmHg 84%
    22:00 +5°C° 0 mm 2 mps 743 mmHg 86%
    23:00 +5°C° 0 mm 2 mps 743 mmHg 87%

    30 April, Sunday

    Time Temperature Precipitation Wind Pressure Humidity
    00:00 +5°C° 0 mm 1 mps 743 mmHg 88%
    01:00 +4°C° 0 mm 1 mps 743 mmHg 89%
    02:00 +4°C° 0 mm 1 mps 743 mmHg 90%
    03:00 +3°C° 0 mm 1 mps 743 mmHg 90%
    04:00 +3°C° 0 mm 1 mps 743 mmHg 91%
    05:00 +5°C° 0 mm 1 mps 744 mmHg 85%
    06:00 +8°C° 0 mm 1 mps 744 mmHg 80%
    07:00 +10°C° 0 mm 1 mps 744 mmHg 75%
    08:00 +11°C° 0 mm 1 mps 744 mmHg 70%
    09:00 +13°C° 0 mm 2 mps 744 mmHg 66%
    10:00 +14°C° 0 mm 3 mps 744 mmHg 61%
    11:00 +16°C° 0 mm 3 mps 744 mmHg 60%
    12:00 +17°C° 0 mm 4 mps 743 mmHg 58%
    13:00 +17°C° 0 mm 4 mps 743 mmHg 56%
    14:00 +17°C° 0 mm 5 mps 743 mmHg 57%
    15:00 +17°C° 0 mm 5 mps 742 mmHg 58%
    16:00 +17°C° 0 mm 5 mps 742 mmHg 59%
    17:00 +15°C° 0 mm 5 mps 742 mmHg 65%
    18:00 +13°C° 0 mm 4 mps 742 mmHg 72%
    19:00 +11°C° 0 mm 4 mps 742 mmHg 79%
    20:00 +11°C° 0 mm 4 mps 743 mmHg 80%
    21:00 +10°C° 0 mm 3 mps 743 mmHg 81%
    22:00 +9°C° 0 mm 3 mps 743 mmHg 82%
    23:00 +8°C° 0 mm 3 mps 743 mmHg 83%

    1 May, Monday

    Time Temperature Precipitation Wind Pressure Humidity
    00:00 +8°C° 0 mm 3 mps 743 mmHg 84%
    01:00 +7°C° 0 mm 3 mps 743 mmHg 84%
    02:00 +7°C° 0 mm 3 mps 743 mmHg 85%
    03:00 +7°C° 0 mm 3 mps 743 mmHg 85%
    04:00 +5°C° 0 mm 4 mps 743 mmHg 86%
    05:00 +7°C° 0 mm 4 mps 743 mmHg 82%
    06:00 +8°C° 0 mm 5 mps 743 mmHg 78%
    07:00 +10°C° 0 mm 5 mps 743 mmHg 74%
    08:00 +11°C° 0 mm 6 mps 743 mmHg 69%
    09:00 +14°C° 0 mm 7 mps 743 mmHg 64%
    10:00 +16°C° 0 mm 7 mps 743 mmHg 59%
    11:00 +16°C° 0 mm 7 mps 743 mmHg 57%
    12:00 +17°C° 0 mm 7 mps 742 mmHg 55%
    13:00 +18°C° 0 mm 7 mps 742 mmHg 54%
    14:00 +18°C° 0 mm 7 mps 742 mmHg 55%
    15:00 +18°C° 0 mm 7 mps 742 mmHg 57%
    16:00 +18°C° 0 mm 7 mps 741 mmHg 59%
    17:00 +16°C° 0 mm 6 mps 742 mmHg 65%
    18:00 +15°C° 0 mm 5 mps 742 mmHg 72%
    19:00 +13°C° 0 mm 4 mps 742 mmHg 78%
    20:00 +13°C° 0 mm 4 mps 742 mmHg 81%
    21:00 +12°C° 0 mm 4 mps 743 mmHg 84%
    22:00 +11°C° 0 mm 4 mps 743 mmHg 86%
    23:00 +11°C° 0 mm 4 mps 743 mmHg 87%

    2 May, Tuesday

    Time Temperature Precipitation Wind Pressure Humidity
    00:00 +11°C° 0 mm 4 mps 743 mmHg 88%
    01:00 +10°C° 0 mm 4 mps 743 mmHg 90%
    02:00 +10°C° 0 mm 4 mps 743 mmHg 90%
    03:00 +10°C° 0 mm 4 mps 743 mmHg 90%
    04:00 +10°C° 0 mm 4 mps 743 mmHg 90%
    05:00 +11°C° 0 mm 4 mps 744 mmHg 87%
    06:00 +12°C° 0 mm 4 mps 744 mmHg 84%
    07:00 +13°C° 0 mm 4 mps 744 mmHg 81%
    08:00 +15°C° 0 mm 5 mps 744 mmHg 76%
    09:00 +17°C° 0 mm 5 mps 744 mmHg 71%
    10:00 +19°C° 0 mm 5 mps 745 mmHg 66%
    11:00 +20°C° 0 mm 5 mps 745 mmHg 64%
    12:00 +21°C° 0 mm 5 mps 745 mmHg 62%
    13:00 +22°C° 0 mm 6 mps 745 mmHg 60%
    14:00 +22°C° 0.1 mm 5 mps 744 mmHg 60%
    15:00 +22°C° 0.1 mm 5 mps 744 mmHg 61%
    16:00 +22°C° 0.1 mm 5 mps 744 mmHg 62%
    17:00 +20°C° 0 mm 4 mps 744 mmHg 69%
    18:00 +18°C° 0 mm 3 mps 744 mmHg 76%
    19:00 +17°C° 0 mm 2 mps 744 mmHg 84%
    20:00 +16°C° 0 mm 2 mps 745 mmHg 86%
    21:00 +15°C° 0 mm 2 mps 745 mmHg 87%
    22:00 +14°C° 0 mm 2 mps 745 mmHg 89%
    23:00 +13°C° 0 mm 2 mps 745 mmHg 90%
    Show more